Weather History for KFTK - June, 2013

Change the Weather History Date:

Monday, June 10, 2013

  Actual Average Record
Temperature  
Mean Temperature 70 °F -  
Max Temperature 76 °F 78 °F 91 °F (1999)
Min Temperature 64 °F 61 °F 53 °F (2001)
Cooling Degree Days 4    
Growing Degree Days 20 (Base 50)    
Moisture  
Dew Point 65 °F    
Average Humidity 92    
Maximum Humidity 100    
Minimum Humidity 69    
Precipitation  
Precipitation 0.49 in - - ()
Sea Level Pressure  
Sea Level Pressure 29.86 in    
Wind  
Wind Speed 6 mph (SW)    
Max Wind Speed 14 mph    
Max Gust Speed 17 mph    
Visibility 9 miles    
Events Rain    
Averages and records for this station are not official NWS values.
T = Trace of Precipitation, MM = Missing Value Source: NWS Daily Summary

Daily Weather History Graph

Daily Weather History Graph

Search for Another Location

Airport or City:

Trip Planner

Search our weather history database for the weather conditions in past years. The results will help you decide how hot, cold, wet, or windy it might be!

Date:

Astronomy

Jun. 10, 2013 Rise Set
Actual Time 6:21 AM EDT 9:05 PM EDT
Civil Twilight 5:49 AM EDT 9:37 PM EDT
Nautical Twilight 5:10 AM EDT 10:16 PM EDT
Astronomical Twilight 4:26 AM EDT 11:00 PM EDT
Moon 8:07 AM EDT (6/10) 10:34 PM EDT (6/10)
Length of Visible Light 15h 47m
Length of Day
14h 44m
Waxing Crescent, 4% of the Moon is Illuminated
Jun 10
Waxing Crescent
Jun 16
First Quarter
Jun 23
Full
Jun 30
Last Quarter
Jul 8
New

Hourly Weather History & Observations

Time (EDT) Temp. Dew Point Humidity Pressure Visibility Wind Dir Wind Speed Gust Speed Precip Events Conditions
12:58 AM 65.5 °F 64.9 °F 98% 29.87 in 10.0 mi SE 5.8 mph - 0.29 in Rain Light Rain
1:00 AM 66.2 °F 64.4 °F 94% 29.88 in 10.0 mi SE 6.9 mph - N/A   Overcast
1:17 AM 66.2 °F 64.4 °F 94% 29.90 in 10.0 mi South 9.2 mph - N/A Rain Light Rain
1:58 AM 65.1 °F 64.8 °F 99% 29.86 in 10.0 mi SE 5.8 mph - 0.11 in Rain Light Rain
2:14 AM 66.2 °F 64.4 °F 94% 29.85 in 10.0 mi SE 3.5 mph - N/A   Mostly Cloudy
2:37 AM 64.4 °F 64.4 °F 100% 29.85 in 10.0 mi SSE 4.6 mph - N/A   Light Drizzle
2:47 AM 64.4 °F 64.4 °F 100% 29.85 in 10.0 mi South 3.5 mph - N/A   Scattered Clouds
2:52 AM 64.4 °F 64.4 °F 100% 29.84 in 10.0 mi SSW 2.3 mph - N/A Rain Light Rain
2:58 AM 64.9 °F 64.9 °F 100% 29.84 in 9.0 mi South 3.5 mph - 0.01 in Rain Light Rain
3:58 AM 64.8 °F 64.8 °F 100% 29.83 in 10.0 mi WSW 2.3 mph - 0.02 in   Light Drizzle
3:59 AM 64.4 °F 64.4 °F 100% 29.83 in 10.0 mi WSW 3.5 mph - N/A   Mostly Cloudy
4:04 AM 64.4 °F 64.4 °F 100% 29.83 in 10.0 mi SW 2.3 mph - N/A   Mostly Cloudy
4:29 AM 64.4 °F 64.4 °F 100% 29.81 in 10.0 mi SE 3.5 mph - N/A   Overcast
4:34 AM 64.4 °F 64.4 °F 100% 29.81 in 10.0 mi SSE 3.5 mph - N/A Rain Light Rain
4:44 AM 64.4 °F 64.4 °F 100% 29.82 in 10.0 mi South 5.8 mph - N/A Rain Light Rain
4:54 AM 64.4 °F 64.4 °F 100% 29.83 in 10.0 mi South 4.6 mph - N/A   Overcast
4:58 AM 65.1 °F 65.1 °F 100% 29.83 in 10.0 mi South 4.6 mph - 0.01 in   Overcast
4:59 AM 64.4 °F 64.4 °F 100% 29.83 in 10.0 mi South 4.6 mph - N/A   Light Drizzle
5:12 AM 64.4 °F 64.4 °F 100% 29.83 in 10.0 mi South 6.9 mph - N/A   Overcast
5:58 AM 65.3 °F 65.3 °F 100% 29.83 in 10.0 mi SSW 8.1 mph - 0.00 in   Overcast
6:13 AM 66.2 °F 66.2 °F 100% 29.84 in 10.0 mi SSW 5.8 mph - N/A   Overcast
6:23 AM 66.2 °F 66.2 °F 100% 29.84 in 10.0 mi SSW 4.6 mph - N/A   Overcast
6:28 AM 66.2 °F 66.2 °F 100% 29.84 in 10.0 mi SSW 5.8 mph - N/A   Overcast
6:38 AM 66.2 °F 66.2 °F 100% 29.85 in 10.0 mi South 4.6 mph - N/A   Overcast
6:48 AM 66.2 °F 66.2 °F 100% 29.85 in 10.0 mi South 5.8 mph - N/A   Overcast
6:58 AM 65.5 °F 65.5 °F 100% 29.86 in 10.0 mi South 4.6 mph - N/A   Overcast
7:03 AM 66.2 °F 66.2 °F 100% 29.86 in 10.0 mi South 4.6 mph - N/A   Overcast
7:24 AM 66.2 °F 66.2 °F 100% 29.85 in 10.0 mi South 4.6 mph - N/A   Overcast
7:30 AM 66.2 °F 66.2 °F 100% 29.86 in 10.0 mi South 5.8 mph - N/A   Overcast
7:45 AM 66.2 °F 66.2 °F 100% 29.86 in 10.0 mi SSW 4.6 mph - N/A   Overcast
7:58 AM 65.8 °F 65.8 °F 100% 29.86 in 5.0 mi SSW 5.8 mph - N/A   Overcast
8:03 AM 66.2 °F 66.2 °F 100% 29.86 in 5.0 mi South 8.1 mph - N/A   Overcast
8:08 AM 66.2 °F 66.2 °F 100% 29.86 in 5.0 mi SSW 6.9 mph - N/A   Overcast
8:18 AM 66.2 °F 66.2 °F 100% 29.86 in 5.0 mi SSW 5.8 mph - N/A   Overcast
8:58 AM 67.1 °F 67.1 °F 100% 29.88 in 5.0 mi SSW 6.9 mph - N/A   Overcast
9:18 AM 68.0 °F 68.0 °F 100% 29.88 in 5.0 mi SW 6.9 mph - N/A   Overcast
9:33 AM 68.0 °F 68.0 °F 100% 29.88 in 6.0 mi SW 6.9 mph - N/A   Overcast
9:38 AM 68.0 °F 66.2 °F 94% 29.88 in 6.0 mi SW 5.8 mph - N/A   Overcast
9:43 AM 68.0 °F 68.0 °F 100% 29.89 in 6.0 mi SW 8.1 mph - N/A   Overcast
9:58 AM 68.5 °F 66.6 °F 93% 29.89 in 7.0 mi SW 10.4 mph - N/A   Overcast
10:09 AM 69.8 °F 66.2 °F 88% 29.89 in 7.0 mi WSW 9.2 mph - N/A Rain Light Rain
10:14 AM 69.8 °F 66.2 °F 88% 29.89 in 7.0 mi WSW 5.8 mph - N/A   Overcast
10:19 AM 68.0 °F 66.2 °F 94% 29.89 in 10.0 mi WSW 6.9 mph - N/A   Overcast
10:24 AM 68.0 °F 66.2 °F 94% 29.89 in 7.0 mi WSW 13.8 mph 17.3 mph N/A   Mostly Cloudy
10:39 AM 69.8 °F 66.2 °F 88% 29.89 in 7.0 mi WSW 10.4 mph 17.3 mph N/A   Mostly Cloudy
10:47 AM 69.8 °F 66.2 °F 88% 29.89 in 7.0 mi WSW 6.9 mph - N/A   Mostly Cloudy
10:58 AM 70.2 °F 66.2 °F 87% 29.89 in 10.0 mi SW 11.5 mph - 0.00 in   Mostly Cloudy
11:33 AM 71.6 °F 66.2 °F 83% 29.89 in 10.0 mi WSW 8.1 mph - N/A   Mostly Cloudy
11:58 AM 71.4 °F 65.3 °F 81% 29.89 in 10.0 mi West 10.4 mph - N/A   Overcast
12:02 PM 71.6 °F 64.4 °F 78% 29.89 in 10.0 mi SW 9.2 mph - N/A Rain Light Rain
12:12 PM 71.6 °F 64.4 °F 78% 29.88 in 10.0 mi SW 8.1 mph - N/A   Mostly Cloudy
12:22 PM 73.4 °F 66.2 °F 78% 29.88 in 10.0 mi SW 9.2 mph - N/A   Scattered Clouds
12:58 PM 74.8 °F 66.0 °F 74% 29.88 in 10.0 mi SSW 11.5 mph - 0.00 in   Mostly Cloudy
1:18 PM 75.2 °F 64.4 °F 69% 29.89 in 10.0 mi SW 12.7 mph - N/A   Mostly Cloudy
1:28 PM 73.4 °F 64.4 °F 73% 29.89 in 6.0 mi SSW 12.7 mph - N/A Rain Light Rain
1:32 PM 71.6 °F 64.4 °F 78% 29.90 in 5.0 mi SW 12.7 mph - N/A Rain Light Rain
1:58 PM 68.9 °F 65.3 °F 88% 29.89 in 5.0 mi SW 9.2 mph - 0.03 in Rain Light Rain
2:16 PM 68.0 °F 64.4 °F 88% 29.89 in 10.0 mi SW 8.1 mph - N/A   Scattered Clouds
2:31 PM 68.0 °F 64.4 °F 88% 29.88 in 7.0 mi WSW 5.8 mph - N/A Rain Light Rain
2:58 PM 68.4 °F 65.1 °F 89% 29.87 in 10.0 mi WSW 5.8 mph - 0.01 in Rain Light Rain
3:14 PM 69.8 °F 66.2 °F 88% 29.86 in 10.0 mi WSW 5.8 mph - N/A   Partly Cloudy
3:16 PM 69.8 °F 66.2 °F 88% 29.86 in 10.0 mi West 5.8 mph - N/A   Scattered Clouds
3:17 PM 69.8 °F 66.2 °F 88% 29.86 in 10.0 mi WSW 5.8 mph - N/A   Scattered Clouds
3:56 PM 73.2 °F 65.5 °F 77% 29.83 in 10.0 mi South 6.9 mph - 0.01 in   Scattered Clouds
4:55 PM 74.1 °F 65.1 °F 73% 29.83 in 10.0 mi WSW 9.2 mph - N/A   Overcast
5:55 PM 75.2 °F 65.1 °F 71% 29.82 in 10.0 mi West 8.1 mph - N/A   Mostly Cloudy
6:55 PM 75.9 °F 65.8 °F 71% 29.83 in 10.0 mi West 8.1 mph - N/A   Scattered Clouds
7:55 PM 72.7 °F 66.0 °F 80% 29.85 in 10.0 mi West 5.8 mph - N/A   Scattered Clouds
8:56 PM 69.4 °F 63.5 °F 81% 29.86 in 10.0 mi West 5.8 mph - N/A   Clear
9:55 PM 66.2 °F 63.1 °F 90% 29.89 in 10.0 mi West 2.3 mph - N/A   Partly Cloudy
10:55 PM 64.6 °F 63.1 °F 95% 29.91 in 10.0 mi WSW 4.6 mph - N/A   Clear
11:58 PM 65.8 °F 63.1 °F 91% 29.93 in 10.0 mi West 4.6 mph - N/A   Clear